Weather History for Minot AFB, ND

Change the Weather History Date:

Thursday, September 12, 2013

  Actual Average Record
Temperature  
Mean Temperature 56 °F -  
Max Temperature 72 °F 69 °F 84 °F (1997)
Min Temperature 42 °F 45 °F 38 °F (2014)
Degree Days  
Heating Degree Days 8    
Growing Degree Days 6 (Base 50)    
Moisture  
Dew Point 46 °F    
Average Humidity 62    
Maximum Humidity 97    
Minimum Humidity 35    
Precipitation  
Precipitation 0.00 in - - ()
Sea Level Pressure  
Sea Level Pressure 30.30 in    
Wind  
Wind Speed 5 mph (WNW)    
Max Wind Speed 8 mph    
Max Gust Speed -    
Visibility 8 miles    
Events      
Averages and records for this station are not official NWS values.
T = Trace of Precipitation, MM = Missing Value Source: NWS Daily Summary

Daily Weather History Graph

Daily Weather History Graph

Search for Another Location

Airport:

Trip Planner

Search our weather history database for the weather conditions in past years. The results will help you decide how hot, cold, wet, or windy it might be!

Date:

Astronomy

Sep. 12, 2013 Rise Set
Actual Time 7:18 AM CDT 8:03 PM CDT
Civil Twilight 6:46 AM CDT 8:35 PM CDT
Nautical Twilight 6:09 AM CDT 9:12 PM CDT
Astronomical Twilight 5:29 AM CDT 9:52 PM CDT
Moon 3:19 PM CDT (9/12) No Moon Set
Length of Visible Light 13h 48m
Length of Day
12h 45m
Waxing Crescent, 50% of the Moon is Illuminated
Sep 12
Waxing Crescent
Sep 12
First Quarter
Sep 19
Full
Sep 26
Last Quarter
Oct 4
New

Hourly Weather History & Observations

Time (CDT) Temp. Windchill Dew Point Humidity Pressure Visibility Wind Dir Wind Speed Gust Speed Precip Events Conditions
12:58 AM 47.1 °F - 43.9 °F 88% 30.28 in 10.0 mi WNW 5.8 mph - N/A   Clear
1:58 AM 45.9 °F 42.3 °F 42.6 °F 88% 30.30 in 10.0 mi WNW 6.9 mph - N/A   Clear
2:58 AM 47.7 °F - 44.1 °F 87% 30.30 in 10.0 mi NW 6.9 mph - N/A   Clear
3:58 AM 43.9 °F 39.3 °F 42.3 °F 94% 30.32 in 10.0 mi NW 8.1 mph - N/A   Clear
4:58 AM 42.1 °F 37.7 °F 40.8 °F 95% 30.32 in 10.0 mi NW 6.9 mph - N/A   Clear
5:58 AM 44.2 °F 41.8 °F 42.4 °F 93% 30.33 in 10.0 mi West 4.6 mph - N/A   Clear
6:58 AM 44.6 °F 40.2 °F 43.5 °F 96% 30.35 in 10.0 mi NW 8.1 mph - N/A   Clear
7:58 AM 44.6 °F 42.2 °F 43.7 °F 97% 30.36 in 9.0 mi NW 4.6 mph - N/A   Clear
8:58 AM 51.8 °F - 47.5 °F 85% 30.37 in 10.0 mi NNW 6.9 mph - N/A   Clear
9:58 AM 56.3 °F - 49.5 °F 78% 30.37 in 10.0 mi Variable 1.2 mph - N/A   Clear
10:58 AM 60.6 °F - 50.7 °F 70% 30.38 in 10.0 mi Variable 2.3 mph - N/A   Clear
11:58 AM 64.2 °F - 47.3 °F 54% 30.37 in 10.0 mi Calm Calm - N/A   Clear
12:58 PM 67.1 °F - 47.3 °F 49% 30.36 in 10.0 mi Variable 2.3 mph - N/A   Clear
1:58 PM 68.7 °F - 46.2 °F 44% 30.34 in 10.0 mi Variable 4.6 mph - N/A   Clear
2:23 PM 68.0 °F - 44.6 °F 43% 30.31 in 0.8 mi Variable 1.2 mph - N/A   Haze
2:28 PM 69.8 °F - 44.6 °F 40% 30.31 in 0.8 mi Variable 2.3 mph - N/A   Haze
2:33 PM 69.8 °F - 46.4 °F 43% 30.30 in 1.5 mi Variable 1.2 mph - N/A   Haze
2:38 PM 69.8 °F - 46.4 °F 43% 30.30 in 3.0 mi Variable 2.3 mph - N/A   Haze
2:58 PM 69.4 °F - 45.7 °F 42% 30.32 in 10.0 mi Variable 3.5 mph - N/A   Clear
3:38 PM 71.6 °F - 44.6 °F 38% 30.28 in 1.5 mi North 4.6 mph - N/A   Haze
3:58 PM 71.6 °F - 46.4 °F 41% 30.30 in 10.0 mi Variable 3.5 mph - N/A   Clear
4:03 PM 71.6 °F - 44.6 °F 38% 30.27 in 1.0 mi Variable 3.5 mph - N/A   Haze
4:58 PM 71.6 °F - 42.8 °F 35% 30.28 in 10.0 mi NE 1.2 mph - N/A   Clear
5:33 PM 71.6 °F - 44.6 °F 38% 30.24 in 2.5 mi Variable 1.2 mph - N/A   Haze
5:58 PM 71.8 °F - 44.1 °F 37% 30.25 in 10.0 mi SE 3.5 mph - N/A   Clear
6:38 PM 71.6 °F - 42.8 °F 35% 30.23 in 10.0 mi Variable 2.3 mph - N/A   Clear
6:58 PM 70.9 °F - 44.8 °F 39% 30.26 in 10.0 mi SSE 3.5 mph - N/A   Clear
7:58 PM 66.0 °F - 48.2 °F 53% 30.25 in 10.0 mi SE 2.3 mph - N/A   Clear
8:58 PM 58.5 °F - 49.1 °F 71% 30.25 in 10.0 mi ESE 6.9 mph - N/A   Clear
9:58 PM 55.9 °F - 49.3 °F 78% 30.25 in 10.0 mi SSE 5.8 mph - N/A   Clear
10:58 PM 54.1 °F - 49.3 °F 84% 30.24 in 10.0 mi SSE 5.8 mph - N/A   Clear
11:58 PM 52.3 °F - 47.3 °F 83% 30.22 in 10.0 mi SSE 5.8 mph - N/A   Clear